User: anonymous   Login
Location: Borovka
(49.7741°N, 14.5280°E)
Time: 03:53:54
(UTC+00:00)
Language:

BUGSAT 1 - Orbit

View from above orbital plane
View from above orbital plane
View from above satellite
View from above satellite

Ground track
Ground track

The orbit is defined by the following mean orbital elements,

1 40014U          26066.98661957 +.00000000 +00000-0 +48896-3 0 00001
2 40014  98.0429 153.7137 0029207 164.2632 195.9513 15.14470230    04
Epoch (UTC): 07 March 2026 23:40:43
Eccentricity: 0.0029207
inclination: 98.0429°
perigee height: 502 km
apogee height: 543 km
right ascension of ascending node: 153.7137°
argument of perigee: 164.2632°
revolutions per day: 15.14470230
mean anomaly at epoch: 195.9513°

The dashed part of the orbit path shows where the satellite is in the earth's shadow,  

DLR